Flag for China Weather past 2 weeks in Changsha, Hunan, China

Now
36 °F

Light rain. Fog.


Feels Like: 28 °F
Forecast: 35 / 36 °F
Wind: 10 mph from North

Location: Changsha

Current Time: Jan 29, 2015 at 2:14:43 AM

Latest Report: Jan 29, 2015 at 1:00 AM


Visibility: 3 mi

Pressure: 30.30 "Hg

Humidity: 87%

Dew point: 32 °F

Location of ChangshaLocation

Historic Weather in Changsha — Graph

°F

Changsha temperature yesterday

Maximum temperature yesterday: 41 °F (at 12:00 AM)
Minimum temperature yesterday: 36 °F (at 6:00 AM)
Average temperature yesterday: 37 °F

Past Weeks' High & Low Weather Summary

 TemperatureHumidityPressure
High68 °F (Jan 23, 3:00 PM)100% (Jan 15, 8:00 AM)30.51 "Hg (Jan 15, 8:00 AM)
Low34 °F (Jan 19, 5:00 AM)23% (Jan 19, 5:00 PM)29.95 "Hg (Jan 23, 4:00 PM)
Average47 °F73%30.24 "Hg
* Reported Jan 14 1:00 AM — Jan 29 1:00 AM, Changsha, Weather by CustomWeather, © 2014

Note: Actual official high and low records may vary slightly from our data, if they occured in-between our weather recording intervals... More about our weather records

Advertising

Changsha weather history for previous 24 hours

 ConditionsComfort  
Time TempWeatherWind HumidityBarometerVisibility
1:00 AM
Jan 29
36 °FLight rain. Fog.10 mph87%30.30 "Hg3 mi
12:00 AM36 °FLight rain. Overcast.13 mph87%30.30 "Hg4 mi
11:00 PM
Jan 28
36 °FLight rain. Overcast.10 mph93%30.30 "Hg4 mi
10:00 PM36 °FLight rain. Overcast.10 mph93%30.27 "Hg4 mi
9:00 PM36 °FLight rain. Overcast.10 mph93%30.27 "Hg4 mi
8:00 PM36 °FDrizzle. Fog.8 mph93%30.24 "Hg3 mi
7:00 PM36 °FDrizzle. Fog.8 mph93%30.21 "Hg1 mi
6:00 PM36 °FDrizzle. Fog.8 mph93%30.18 "Hg1 mi
5:00 PM36 °FDrizzle. Fog.8 mph93%30.18 "Hg1 mi
4:00 PM37 °FDrizzle. Fog.8 mph87%30.18 "Hg1 mi
3:00 PM37 °FLight rain. Fog.8 mph87%30.18 "Hg1 mi
2:00 PM37 °FLight rain. Fog.8 mph87%30.18 "Hg1 mi
1:00 PM37 °FLight rain. Fog.8 mph87%30.21 "Hg1 mi
12:00 PM37 °FLight rain. Fog.10 mph87%30.24 "Hg1 mi
11:00 AM37 °FLight rain. Fog.10 mph87%30.27 "Hg1 mi
10:00 AM37 °FLight rain. Fog.8 mph87%30.27 "Hg1 mi
9:00 AM37 °FLight rain. Fog.6 mph87%30.27 "Hg1 mi
8:00 AM37 °FLight rain. Fog.8 mph87%30.27 "Hg1 mi
7:00 AM37 °FLight rain. Fog.6 mph87%30.24 "Hg1 mi
6:00 AM36 °FLight rain. Fog.10 mph93%30.24 "Hg1 mi
5:00 AM37 °FLight rain. Fog.8 mph87%30.21 "Hg1 mi
4:00 AM37 °FLight rain. Fog.8 mph93%30.24 "Hg1 mi
3:00 AM39 °FLight rain. Fog.13 mph87%30.24 "Hg1 mi
2:00 AM39 °FLight rain. Fog.13 mph93%30.24 "Hg2 mi
Weather by CustomWeather, © 2014

See weather overviewHow to use our weather pages